Location: Fort Worth, Tx
(32.7431°N, 97.3695°W)
Time: 11:17:54
(UTC-04:00)

A-11 Canister half - Pass Details

Date: 14 August 2024
Orbit: 1524 x 1684 km, 47.3° (Epoch: 13 September)

Event Time Altitude Azimuth Distance (km) Brightness Sun altitude
Rises 04:35:36 0° 297° (WNW) 4,938 11.6 -34.8°
Reaches altitude 10° 04:39:11 10° 305° (NW) 3,949 11.1 -34.4°
Maximum altitude 04:48:25 37° 11° (N) 2,390 10.3 -33.2°
Drops below altitude 10° 04:57:29 10° 76° (ENE) 3,885 11.7 -31.9°
Sets 05:00:57 0° 84° (E) 4,849 12.3 -31.4°
